User: anonymous   Login
Location: Hungerford
(51.4167°N, 1.5167°W)
Time: 17:02:00
(UTC+00:00)
Language:

Cosmos 1048 Rocket - Orbit

View from above orbital plane
View from above orbital plane
View from above satellite
View from above satellite

Ground track
Ground track

The orbit data is extracted from the following two-line orbital elements,

1 11112U 78105B   21125.92293053 -.00000016  00000-0  36542-5 0  9994
2 11112  74.0317  75.8080 0034903 247.3289 112.4173 14.37307458223325
Epoch (UTC): 05 May 2021 22:09:01
Eccentricity: 0.0034903
inclination: 74.0317°
perigee height: 742 km
apogee height: 792 km
right ascension of ascending node: 75.8080°
argument of perigee: 247.3289°
revolutions per day: 14.37307458
mean anomaly at epoch: 112.4173°
orbit number at epoch: 22332

The dashed part of the orbit path shows where the satellite is in the earth's shadow,  

DLR